EW1760 Leonardtown MD US current weather conditions

sailwx.info

Wind from 030

Air temperature 23.9° C
Dewpoint 23.4° C

Last reported at 2020-Aug-14 10:00 UTC.
Time now 2020-Aug-14 10:46 UTC

Location: N 38°14' W 076°41'.
View on Google Maps.

See reports from other nearby stations

  
Tides and Currents Weather Stations Pressure Air Temp Water Temp Dewpoint Dewpoint Depression Visibility Wind Speed Wind Dir Waves Ship Positions
date/time (UTC)wind fromknots sea level pressurealtimeterstation pressurevisibilityair tempwater tempwave heightnotes
2020-Aug-14 10:00 030 23.9
2020-Aug-14 09:45 005 23.9
2020-Aug-14 09:30 028 23.9
2020-Aug-14 09:15 028 23.9
2020-Aug-14 09:00 024 23.9
2020-Aug-14 08:45 032 23.9
2020-Aug-14 08:30 023 23.9
2020-Aug-14 08:15 041 23.9
2020-Aug-14 08:00 080 23.9
2020-Aug-14 07:46 024 23.9
2020-Aug-14 07:32 028 23.9
2020-Aug-14 07:18 017 23.9
2020-Aug-14 07:01 011 23.9
2020-Aug-14 06:46 005 23.9
2020-Aug-14 06:31 049 23.9
2020-Aug-14 06:18 037 23.9
2020-Aug-14 06:01 021 23.9
2020-Aug-14 05:46 022 23.9
2020-Aug-14 05:31 041 23.9
2020-Aug-14 05:16 042 23.9
2020-Aug-14 05:01 015 23.9
2020-Aug-14 04:46 015 23.9
2020-Aug-14 04:31 355 23.9
2020-Aug-14 04:16 005 23.9
2020-Aug-14 04:03 030 23.9
2020-Aug-14 03:46 036 24.4
2020-Aug-14 03:31 040 24.4
2020-Aug-14 03:15 039 23.9
2020-Aug-14 03:01 037 23.9
2020-Aug-14 02:45 125 23.9
2020-Aug-14 02:31 125 23.9
2020-Aug-14 02:15 125 23.9
2020-Aug-14 02:01 200 24.4
2020-Aug-14 01:46 179 0 gusting 6 24.4
2020-Aug-14 01:30 035 25.0
2020-Aug-14 01:16 036 25.0
2020-Aug-14 01:01 034 25.0
2020-Aug-14 00:45 340 25.0
2020-Aug-14 00:15 067 25.6
2020-Aug-14 00:01 016 25.6
2020-Aug-13 23:00 053 25.6
2020-Aug-13 22:45 023 25.0
2020-Aug-13 22:30 023 24.4
2020-Aug-13 22:16 023 24.4
2020-Aug-13 22:01 028 24.4
2020-Aug-13 21:46 028 24.4
2020-Aug-13 21:31 029 24.4
2020-Aug-13 21:16 014 24.4
2020-Aug-13 21:00 013 24.4
2020-Aug-13 20:45 360 24.4
2020-Aug-13 20:30 028 25.0
2020-Aug-13 20:15 034 25.6
2020-Aug-13 20:00 030 26.1
2020-Aug-13 19:45 043 0 gusting 6 26.7
2020-Aug-13 19:30 031 0 gusting 10 26.7
2020-Aug-13 19:15 032 1 gusting 6 27.2
2020-Aug-13 19:00 005 1 gusting 5 27.2
2020-Aug-13 18:45 042 27.8
2020-Aug-13 18:30 060 27.8
2020-Aug-13 18:15 039 28.3
2020-Aug-13 18:00 034 27.8
2020-Aug-13 17:45 355 1 gusting 6 27.8
2020-Aug-13 17:31 013 0 gusting 6 27.2
2020-Aug-13 17:16 026 26.7
2020-Aug-13 17:01 338 0 gusting 6 26.1
2020-Aug-13 16:46 010 25.6
2020-Aug-13 16:31 345 25.0
2020-Aug-13 16:16 044 0 gusting 5 25.0
2020-Aug-13 16:01 355 1 gusting 5 24.4
2020-Aug-13 15:47 360 24.4
2020-Aug-13 15:32 013 0 gusting 6 24.4
2020-Aug-13 15:17 014 23.9
2020-Aug-13 15:01 009 23.9
2020-Aug-13 14:46 032 23.9
2020-Aug-13 14:32 085 23.9
2020-Aug-13 14:17 010 1 gusting 6 23.9
2020-Aug-13 14:01 017 23.3
2020-Aug-13 13:45 034 23.3
2020-Aug-13 13:30 037 23.3
2020-Aug-13 13:15 355 22.8
2020-Aug-13 13:01 036 23.3
2020-Aug-13 12:46 348 23.3
2020-Aug-13 12:30 292 6 gusting 12 23.3
2020-Aug-13 12:15 330 11 gusting 13 23.3
2020-Aug-13 12:00 005 23.3
2020-Aug-13 11:46 005 4 gusting 6 23.9
2020-Aug-13 11:31 178 24.4
2020-Aug-13 11:16 188 25.0
2020-Aug-13 11:00 189 25.0
2020-Aug-13 10:45 189 25.0
2020-Aug-13 10:30 189 25.0
2020-Aug-13 10:15 189 25.0
2020-Aug-13 10:00 189 25.0
2020-Aug-13 09:46 189 25.0
2020-Aug-13 09:30 189 25.0
2020-Aug-13 09:15 189 24.4
2020-Aug-13 09:00 189 24.4
2020-Aug-13 08:45 189 24.4
2020-Aug-13 08:30 189 24.4
2020-Aug-13 08:15 189 24.4
2020-Aug-13 08:00 189 24.4
2020-Aug-13 07:45 189 24.4
2020-Aug-13 07:30 189 24.4
2020-Aug-13 07:15 189 24.4
2020-Aug-13 07:00 189 24.4
2020-Aug-13 06:45 189 24.4
2020-Aug-13 06:30 189 24.4
2020-Aug-13 06:15 189 24.4
2020-Aug-13 06:00 189 24.4
2020-Aug-13 05:45 189 24.4
2020-Aug-13 05:30 189 24.4
2020-Aug-13 05:15 189 24.4
2020-Aug-13 05:00 189 24.4
2020-Aug-13 04:32 189 25.0
2020-Aug-13 04:18 189 25.0
2020-Aug-13 04:01 182 3 gusting 7 25.0
2020-Aug-13 03:46 180 25.0
2020-Aug-13 03:32 163 1 gusting 6 25.0
2020-Aug-13 03:16 169 2 gusting 7 25.0
2020-Aug-13 03:01 174 25.6
2020-Aug-13 02:46 169 25.6
2020-Aug-13 02:32 171 25.6
2020-Aug-13 02:18 192 25.6
2020-Aug-13 02:01 180 1 gusting 6 25.6
2020-Aug-13 01:46 176 5 gusting 8 25.6
2020-Aug-13 01:31 181 6 gusting 10 25.6
2020-Aug-13 01:17 172 6 gusting 12 26.1
2020-Aug-13 01:01 169 10 gusting 13 26.1
2020-Aug-13 00:46 157 6 gusting 12 26.1
2020-Aug-13 00:32 189 26.1
2020-Aug-13 00:16 252 26.1
2020-Aug-13 00:01 151 26.7
2020-Aug-12 23:46 147 26.7
2020-Aug-12 23:31 126 26.7
2020-Aug-12 23:15 184 27.2
2020-Aug-12 23:01 180 27.2
2020-Aug-12 22:47 175 1 gusting 6 27.2
2020-Aug-12 22:31 146 27.2
2020-Aug-12 22:16 339 27.2
2020-Aug-12 22:01 329 27.2
2020-Aug-12 21:46 327 27.2
2020-Aug-12 21:31 326 26.7
2020-Aug-12 21:16 322 26.7
2020-Aug-12 21:01 323 26.7
2020-Aug-12 20:45 322 26.7
2020-Aug-12 20:30 322 26.7
2020-Aug-12 20:16 333 26.7
2020-Aug-12 20:00 333 26.1
2020-Aug-12 19:46 329 1 gusting 5 26.7
2020-Aug-12 19:30 294 26.7
2020-Aug-12 19:16 298 2 gusting 6 26.7
2020-Aug-12 19:00 279 8 gusting 13 27.2
2020-Aug-12 18:45 275 11 gusting 15 26.7
2020-Aug-12 18:30 178 6 gusting 9 28.9
2020-Aug-12 18:15 170 6 gusting 8 28.9
2020-Aug-12 18:01 163 4 gusting 8 28.9
2020-Aug-12 17:45 163 8 gusting 13 28.9
2020-Aug-12 17:31 174 2 gusting 6 29.4
2020-Aug-12 17:15 181 1 gusting 5 28.9
2020-Aug-12 17:01 214 28.9
2020-Aug-12 16:45 184 4 gusting 6 28.9
2020-Aug-12 16:30 184 4 gusting 6 28.9
2020-Aug-12 16:15 182 3 gusting 7 28.3
2020-Aug-12 16:00 173 4 gusting 6 28.3
2020-Aug-12 15:45 178 2 gusting 6 27.8
2020-Aug-12 15:30 166 27.8
2020-Aug-12 15:15 166 2 gusting 6 27.2
2020-Aug-12 15:00 197 27.8
2020-Aug-12 14:45 199 27.2
2020-Aug-12 14:33 199 27.2
2020-Aug-12 14:16 199 2 gusting 4 27.2
2020-Aug-12 14:01 263 27.2
2020-Aug-12 13:46 267 27.2
2020-Aug-12 13:31 267 27.2
2020-Aug-12 13:17 326 27.2
2020-Aug-12 13:01 326 27.2
2020-Aug-12 12:46 326 26.7
2020-Aug-12 12:32 326 26.7
2020-Aug-12 12:16 326 26.1
2020-Aug-12 12:01 326 26.1
2020-Aug-12 11:46 325 0 gusting 4 26.1
2020-Aug-12 11:32 321 26.1
2020-Aug-12 11:16 321 26.1
2020-Aug-12 11:01 321 1 gusting 6 26.1
2020-Aug-12 10:47 312 26.1
2020-Aug-12 10:32 313 26.1